| time (UTC) | temp F | wind direction | speed MPH | gust MPH | rain 1hr in | rain 24hr in | rain mn in | humidity % | barometer mb |
| 20260507230037 | 52 | 265 | 9.0 | 16.0 | 0.00 | 0.76 | 0.76 | 93 | 1001.6 |
| 20260507224537 | 53 | 210 | 4.0 | 8.0 | 0.00 | 0.76 | 0.76 | 94 | 1001.2 |
| 20260507223040 | 54 | 241 | 2.0 | 4.0 | 0.00 | 0.76 | 0.76 | 93 | 1001.1 |
| 20260507221538 | 55 | 0 | 1.0 | 9.0 | 0.00 | 0.76 | 0.76 | 93 | 1001.1 |
| 20260507220038 | 55 | 156 | 3.0 | 10.0 | 0.00 | 0.76 | 0.76 | 93 | 1000.9 |
| 20260507214552 | 55 | 157 | 1.0 | 5.0 | 0.00 | 0.76 | 0.76 | 93 | 1000.9 |
| 20260507213039 | 55 | 173 | 2.0 | 9.0 | 0.00 | 0.76 | 0.76 | 93 | 1000.8 |
| 20260507211537 | 55 | 102 | 5.0 | 10.0 | 0.00 | 0.76 | 0.76 | 94 | 1000.8 |
| 20260507210049 | 55 | 152 | 4.0 | 11.0 | 0.00 | 0.76 | 0.76 | 94 | 1000.8 |
| 20260507204539 | 54 | 189 | 7.0 | 12.0 | 0.02 | 0.76 | 0.76 | 94 | 1000.6 |
| 20260507203048 | 54 | 166 | 2.0 | 13.0 | 0.06 | 0.76 | 0.76 | 95 | 1000.8 |
| 20260507201543 | 54 | 119 | 7.0 | 16.0 | 0.09 | 0.76 | 0.76 | 95 | 1000.3 |
| 20260507200043 | 54 | 107 | 10.0 | 21.0 | 0.13 | 0.76 | 0.76 | 95 | 999.8 |
| 20260507194600 | 54 | 106 | 9.0 | 14.0 | 0.14 | 0.74 | 0.74 | 96 | 1001.0 |
| 20260507193038 | 54 | 87 | 5.0 | 14.0 | 0.13 | 0.70 | 0.70 | 96 | 1001.7 |
| 20260507191543 | 54 | 174 | 2.0 | 10.0 | 0.15 | 0.66 | 0.66 | 96 | 1002.9 |
| 20260507190038 | 54 | 129 | 6.0 | 12.0 | 0.20 | 0.63 | 0.63 | 96 | 1002.6 |
| 20260507184540 | 54 | 152 | 7.0 | 15.0 | 0.27 | 0.60 | 0.60 | 96 | 1003.1 |
| 20260507183038 | 54 | 147 | 5.0 | 13.0 | 0.41 | 0.56 | 0.56 | 96 | 1003.1 |
| 20260507181542 | 53 | 162 | 5.0 | 12.0 | 0.47 | 0.51 | 0.51 | 96 | 1003.5 |
| 20260507180041 | 53 | 6 | 4.0 | 14.0 | 0.41 | 0.43 | 0.43 | 95 | 1003.7 |
| 20260507174544 | 53 | 194 | 5.0 | 17.0 | 0.31 | 0.32 | 0.32 | 94 | 1003.8 |
| 20260507173039 | 54 | 221 | 8.0 | 22.0 | 0.14 | 0.14 | 0.14 | 93 | 1003.4 |
| 20260507171545 | 55 | 250 | 8.0 | 27.0 | 0.04 | 0.04 | 0.04 | 92 | 1002.9 |
| 20260507170040 | 56 | 188 | 8.0 | 21.0 | 0.02 | 0.02 | 0.02 | 90 | 1002.8 |
| 20260507164542 | 57 | 179 | 8.0 | 22.0 | 0.01 | 0.01 | 0.01 | 88 | 1002.9 |
| 20260507163039 | 60 | 163 | 8.0 | 26.0 | 0.00 | 0.00 | 0.00 | 82 | 1003.2 |
| 20260507161542 | 59 | 169 | 8.0 | 20.0 | 0.00 | 0.00 | 0.00 | 83 | 1003.5 |
| 20260507160037 | 60 | 0 | 9.0 | 26.0 | 0.00 | 0.00 | 0.00 | 81 | 1003.7 |
| 20260507154538 | 60 | 152 | 14.0 | 28.0 | 0.00 | 0.00 | 0.00 | 78 | 1004.0 |
| 20260507153042 | 61 | 131 | 12.0 | 31.0 | 0.00 | 0.00 | 0.00 | 78 | 1004.3 |
| 20260507151539 | 61 | 142 | 12.0 | 29.0 | 0.00 | 0.00 | 0.00 | 78 | 1004.8 |
| 20260507150039 | 61 | 50 | 13.0 | 30.0 | 0.00 | 0.00 | 0.00 | 78 | 1005.0 |
| 20260507144537 | 61 | 165 | 11.0 | 27.0 | 0.00 | 0.00 | 0.00 | 79 | 1005.0 |
| 20260507143038 | 61 | 142 | 12.0 | 26.0 | 0.00 | 0.00 | 0.00 | 80 | 1005.1 |
| 20260507141544 | 60 | 136 | 13.0 | 25.0 | 0.00 | 0.00 | 0.00 | 82 | 1005.4 |
| 20260507140041 | 59 | 142 | 16.0 | 29.0 | 0.00 | 0.00 | 0.00 | 84 | 1005.4 |
| 20260507134541 | 60 | 216 | 14.0 | 28.0 | 0.00 | 0.00 | 0.00 | 82 | 1005.7 |
| 20260507133039 | 59 | 102 | 15.0 | 31.0 | 0.00 | 0.00 | 0.00 | 82 | 1005.7 |
| 20260507131548 | 59 | 157 | 12.0 | 33.0 | 0.00 | 0.00 | 0.00 | 83 | 1006.0 |
| 20260507130041 | 60 | 142 | 14.0 | 28.0 | 0.00 | 0.00 | 0.00 | 83 | 1006.4 |
| 20260507124537 | 59 | 173 | 13.0 | 30.0 | 0.00 | 0.00 | 0.00 | 83 | 1006.4 |
| 20260507123037 | 60 | 142 | 11.0 | 33.0 | 0.00 | 0.00 | 0.00 | 81 | 1006.6 |
| 20260507121536 | 60 | 164 | 15.0 | 31.0 | 0.00 | 0.00 | 0.00 | 82 | 1006.4 |
| 20260507120038 | 59 | 152 | 14.0 | 25.0 | 0.00 | 0.00 | 0.00 | 84 | 1006.6 |
| 20260507114541 | 59 | 152 | 15.0 | 32.0 | 0.00 | 0.00 | 0.00 | 84 | 1006.9 |
| 20260507113037 | 59 | 175 | 16.0 | 40.0 | 0.00 | 0.00 | 0.00 | 84 | 1006.9 |
| 20260507111537 | 60 | 182 | 15.0 | 30.0 | 0.00 | 0.00 | 0.00 | 84 | 1007.7 |
| 20260507110042 | 59 | 186 | 15.0 | 25.0 | 0.00 | 0.00 | 0.00 | 84 | 1007.3 |
| 20260507104540 | 59 | 189 | 11.0 | 27.0 | 0.00 | 0.00 | 0.00 | 83 | 1007.9 |
| 20260507103037 | 59 | 178 | 13.0 | 27.0 | 0.00 | 0.00 | 0.00 | 83 | 1007.9 |
| 20260507101538 | 59 | 236 | 10.0 | 26.0 | 0.00 | 0.00 | 0.00 | 83 | 1008.1 |
| 20260507100041 | 59 | 142 | 12.0 | 28.0 | 0.00 | 0.00 | 0.00 | 84 | 1008.5 |
| 20260507094538 | 57 | 186 | 13.0 | 27.0 | 0.00 | 0.00 | 0.00 | 87 | 1008.2 |
| 20260507093045 | 57 | 161 | 9.0 | 21.0 | 0.00 | 0.00 | 0.00 | 87 | 1009.2 |
| 20260507091540 | 56 | 176 | 7.0 | 19.0 | 0.00 | 0.00 | 0.00 | 88 | 1009.5 |
| 20260507090038 | 56 | 158 | 8.0 | 18.0 | 0.00 | 0.00 | 0.00 | 88 | 1009.7 |
| 20260507084540 | 57 | 108 | 8.0 | 19.0 | 0.00 | 0.00 | 0.00 | 88 | 1009.8 |
| 20260507083037 | 57 | 190 | 7.0 | 16.0 | 0.00 | 0.00 | 0.00 | 87 | 1010.3 |
| 20260507081537 | 57 | 215 | 5.0 | 15.0 | 0.00 | 0.00 | 0.00 | 86 | 1009.3 |
| 20260507080040 | 58 | 191 | 6.0 | 16.0 | 0.00 | 0.00 | 0.00 | 86 | 1010.1 |
| 20260507074537 | 58 | 181 | 6.0 | 20.0 | 0.00 | 0.00 | 0.00 | 84 | 1010.5 |
| 20260507073039 | 58 | 231 | 7.0 | 19.0 | 0.00 | 0.00 | 0.00 | 85 | 1010.7 |
| 20260507071600 | 58 | 160 | 4.0 | 15.0 | 0.00 | 0.00 | 0.00 | 83 | 1011.4 |
| 20260507070039 | 59 | 152 | 7.0 | 18.0 | 0.00 | 0.00 | 0.00 | 82 | 1011.5 |
| 20260507064538 | 58 | 171 | 7.0 | 18.0 | 0.00 | 0.00 | 0.00 | 81 | 1011.4 |
| 20260507063044 | 59 | 152 | 8.0 | 18.0 | 0.00 | 0.00 | 0.00 | 81 | 1011.5 |
| 20260507061539 | 59 | 175 | 7.0 | 22.0 | 0.00 | 0.00 | 0.00 | 79 | 1011.7 |
| 20260507060038 | 60 | 169 | 8.0 | 20.0 | 0.00 | 0.00 | 0.00 | 76 | 1011.7 |
| 20260507054540 | 60 | 180 | 9.0 | 20.0 | 0.00 | 0.00 | 0.00 | 72 | 1011.8 |
| 20260507053109 | 59 | 187 | 10.0 | 21.0 | 0.00 | 0.00 | 0.00 | 70 | 1012.4 |
| 20260507051543 | 57 | 221 | 4.0 | 11.0 | 0.00 | 0.00 | 0.00 | 75 | 1013.0 |
| 20260507050040 | 58 | 137 | 4.0 | 14.0 | 0.00 | 0.00 | 0.00 | 76 | 1013.3 |
| 20260507044538 | 57 | 181 | 5.0 | 12.0 | 0.00 | 0.00 | 0.00 | 76 | 1013.6 |
| 20260507043039 | 58 | 158 | 6.0 | 14.0 | 0.00 | 0.00 | 0.00 | 76 | 1013.9 |
| 20260507041538 | 58 | 0 | 5.0 | 15.0 | 0.00 | 0.00 | 0.00 | 77 | 1014.3 |
| 20260507040037 | 58 | 0 | 5.0 | 18.0 | 0.00 | 0.00 | 0.00 | 77 | 1014.5 |
| 20260507034539 | 58 | 152 | 8.0 | 19.0 | 0.00 | 0.00 | 0.00 | 77 | 1014.7 |
| 20260507033044 | 58 | 137 | 8.0 | 18.0 | 0.00 | 0.00 | 0.00 | 78 | 1015.0 |
| 20260507031540 | 58 | 179 | 8.0 | 17.0 | 0.00 | 0.00 | 0.00 | 78 | 1015.2 |
| 20260507030039 | 58 | 191 | 7.0 | 18.0 | 0.00 | 0.00 | 0.00 | 77 | 1015.3 |
| 20260507024540 | 58 | 179 | 7.0 | 20.0 | 0.00 | 0.00 | 0.00 | 76 | 1015.5 |
| 20260507023039 | 59 | 195 | 8.0 | 20.0 | 0.00 | 0.00 | 0.00 | 76 | 1015.6 |
| 20260507021537 | 59 | 147 | 7.0 | 19.0 | 0.00 | 0.00 | 0.00 | 75 | 1015.7 |
| 20260507020042 | 58 | 163 | 8.0 | 19.0 | 0.00 | 0.00 | 0.00 | 76 | 1015.8 |
| 20260507014548 | 59 | 206 | 7.0 | 17.0 | 0.00 | 0.00 | 0.00 | 77 | 1015.8 |
| 20260507013037 | 59 | 162 | 9.0 | 20.0 | 0.00 | 0.00 | 0.00 | 77 | 1015.8 |
| 20260507011540 | 59 | 164 | 11.0 | 21.0 | 0.00 | 0.00 | 0.00 | 77 | 1015.9 |
| 20260507010037 | 59 | 171 | 9.0 | 23.0 | 0.00 | 0.00 | 0.00 | 77 | 1016.3 |
| 20260507004545 | 58 | 166 | 7.0 | 16.0 | 0.00 | 0.00 | 0.00 | 77 | 1016.4 |
| 20260507003038 | 58 | 198 | 7.0 | 17.0 | 0.00 | 0.00 | 0.00 | 76 | 1016.3 |
| 20260507001547 | 59 | 169 | 8.0 | 19.0 | 0.00 | 0.00 | 0.00 | 75 | 1016.4 |
| 20260507000037 | 60 | 160 | 7.0 | 18.0 | 0.00 | 0.00 | 0.00 | 74 | 1016.2 |
| 20260506234537 | 60 | 220 | 6.0 | 18.0 | 0.00 | 0.00 | 0.00 | 72 | 1016.1 |
| 20260506233043 | 60 | 169 | 8.0 | 17.0 | 0.00 | 0.00 | 0.00 | 72 | 1016.0 |
| 20260506231542 | 60 | 176 | 7.0 | 16.0 | 0.00 | 0.00 | 0.00 | 70 | 1015.7 |